• In Sweden
  • List of Countries
  • For 7 days
  • Water Temperature
  • Satellite Maps
  • Weather Map
  • Weather Widgets
  • user-avatar
    Login

    Hourly Weather Kavarna

    Today, 22 January, Monday

    Time Temperature Precipitation Wind Pressure Humidity
    00:00 +4°C° 1.4 mm 6 mps 751 mmHg 97%
    01:00 +4°C° 1.4 mm 6 mps 751 mmHg 97%
    02:00 +5°C° 1.4 mm 5 mps 750 mmHg 98%
    03:00 +5°C° 1.7 mm 5 mps 750 mmHg 98%
    04:00 +5°C° 1.7 mm 5 mps 749 mmHg 97%
    05:00 +5°C° 1.7 mm 4 mps 749 mmHg 97%
    06:00 +5°C° 0.8 mm 5 mps 749 mmHg 97%
    07:00 +4°C° 0.8 mm 6 mps 749 mmHg 96%
    08:00 +4°C° 0.8 mm 6 mps 749 mmHg 95%
    09:00 +4°C° 0.5 mm 7 mps 749 mmHg 93%
    10:00 +2°C° 0.5 mm 8 mps 750 mmHg 91%
    11:00 +2°C° 0.5 mm 9 mps 750 mmHg 89%
    12:00 +1°C° 0.3 mm 11 mps 751 mmHg 88%
    13:00 0°C° 0.3 mm 12 mps 751 mmHg 87%
    14:00 -1°C° 0.3 mm 13 mps 751 mmHg 86%
    15:00 -1°C° 0.3 mm 14 mps 752 mmHg 86%
    16:00 -2°C° 0.3 mm 14 mps 753 mmHg 86%
    17:00 -4°C° 0.3 mm 15 mps 754 mmHg 85%
    18:00 -4°C° 0.2 mm 14 mps 755 mmHg 85%
    19:00 -4°C° 0.2 mm 14 mps 755 mmHg 85%
    20:00 -4°C° 0.2 mm 13 mps 756 mmHg 84%
    21:00 -4°C° 0.1 mm 13 mps 757 mmHg 84%
    22:00 -3°C° 0.1 mm 12 mps 758 mmHg 83%
    23:00 -5°C° 0.1 mm 12 mps 759 mmHg 83%

    Tomorrow, 23 January, Tuesday

    Time Temperature Precipitation Wind Pressure Humidity
    00:00 -5°C° 0 mm 12 mps 759 mmHg 83%
    01:00 -4°C° 0 mm 11 mps 760 mmHg 84%
    02:00 -4°C° 0 mm 11 mps 760 mmHg 84%
    03:00 -6°C° 0 mm 11 mps 761 mmHg 84%
    04:00 -6°C° 0 mm 11 mps 761 mmHg 84%
    05:00 -7°C° 0 mm 11 mps 762 mmHg 85%
    06:00 -7°C° 0 mm 10 mps 762 mmHg 84%
    07:00 -7°C° 0 mm 10 mps 763 mmHg 83%
    08:00 -7°C° 0 mm 10 mps 764 mmHg 82%
    09:00 -5°C° 0 mm 9 mps 764 mmHg 78%
    10:00 -5°C° 0 mm 9 mps 765 mmHg 74%
    11:00 -4°C° 0 mm 9 mps 765 mmHg 69%
    12:00 -3°C° 0 mm 9 mps 766 mmHg 67%
    13:00 -3°C° 0 mm 9 mps 766 mmHg 65%
    14:00 -1°C° 0 mm 9 mps 766 mmHg 63%
    15:00 -3°C° 0 mm 9 mps 767 mmHg 65%
    16:00 -4°C° 0 mm 9 mps 767 mmHg 67%
    17:00 -4°C° 0 mm 9 mps 768 mmHg 69%
    18:00 -5°C° 0 mm 9 mps 768 mmHg 68%
    19:00 -5°C° 0 mm 9 mps 769 mmHg 68%
    20:00 -6°C° 0 mm 9 mps 769 mmHg 67%
    21:00 -6°C° 0 mm 9 mps 770 mmHg 67%
    22:00 -6°C° 0 mm 9 mps 771 mmHg 67%
    23:00 -8°C° 0 mm 9 mps 771 mmHg 66%

    Day after tomorrow, 24 January, Wednesday

    Time Temperature Precipitation Wind Pressure Humidity
    00:00 -7°C° 0 mm 8 mps 771 mmHg 67%
    01:00 -7°C° 0 mm 8 mps 772 mmHg 67%
    02:00 -7°C° 0 mm 8 mps 772 mmHg 68%
    03:00 -8°C° 0 mm 8 mps 772 mmHg 68%
    04:00 -8°C° 0 mm 8 mps 773 mmHg 68%
    05:00 -8°C° 0 mm 8 mps 773 mmHg 68%
    06:00 -8°C° 0 mm 8 mps 773 mmHg 68%
    07:00 -8°C° 0 mm 8 mps 774 mmHg 69%
    08:00 -8°C° 0 mm 8 mps 775 mmHg 69%
    09:00 -7°C° 0 mm 8 mps 775 mmHg 65%
    10:00 -6°C° 0 mm 7 mps 775 mmHg 62%
    11:00 -4°C° 0 mm 7 mps 776 mmHg 58%
    12:00 -3°C° 0 mm 7 mps 775 mmHg 56%
    13:00 -3°C° 0 mm 7 mps 775 mmHg 53%
    14:00 -2°C° 0 mm 7 mps 775 mmHg 51%
    15:00 -3°C° 0 mm 7 mps 775 mmHg 55%
    16:00 -4°C° 0 mm 7 mps 775 mmHg 59%
    17:00 -4°C° 0 mm 7 mps 775 mmHg 63%
    18:00 -5°C° 0 mm 6 mps 775 mmHg 65%
    19:00 -5°C° 0 mm 6 mps 775 mmHg 66%
    20:00 -5°C° 0 mm 6 mps 775 mmHg 68%
    21:00 -5°C° 0 mm 6 mps 775 mmHg 68%
    22:00 -5°C° 0 mm 5 mps 775 mmHg 67%
    23:00 -5°C° 0 mm 5 mps 775 mmHg 66%

    25 January, Thursday

    Time Temperature Precipitation Wind Pressure Humidity
    00:00 -6°C° 0 mm 5 mps 775 mmHg 69%
    01:00 -6°C° 0 mm 5 mps 774 mmHg 71%
    02:00 -6°C° 0 mm 5 mps 774 mmHg 73%
    03:00 -6°C° 0 mm 5 mps 774 mmHg 76%
    04:00 -6°C° 0 mm 5 mps 773 mmHg 79%
    05:00 -6°C° 0 mm 5 mps 773 mmHg 82%
    06:00 -6°C° 0 mm 5 mps 773 mmHg 83%
    07:00 -6°C° 0 mm 5 mps 773 mmHg 84%
    08:00 -5°C° 0 mm 4 mps 773 mmHg 85%
    09:00 -4°C° 0 mm 4 mps 773 mmHg 78%
    10:00 -3°C° 0 mm 4 mps 773 mmHg 71%
    11:00 -2°C° 0 mm 4 mps 773 mmHg 64%
    12:00 -1°C° 0 mm 4 mps 772 mmHg 60%
    13:00 0°C° 0 mm 5 mps 771 mmHg 56%
    14:00 0°C° 0 mm 5 mps 771 mmHg 52%
    15:00 -1°C° 0 mm 5 mps 770 mmHg 57%
    16:00 -2°C° 0 mm 5 mps 770 mmHg 62%
    17:00 -2°C° 0 mm 5 mps 770 mmHg 67%
    18:00 -4°C° 0 mm 5 mps 770 mmHg 69%
    19:00 -4°C° 0 mm 5 mps 770 mmHg 72%
    20:00 -4°C° 0 mm 6 mps 770 mmHg 74%
    21:00 -4°C° 0.1 mm 6 mps 770 mmHg 75%
    22:00 -4°C° 0.1 mm 5 mps 770 mmHg 76%
    23:00 -4°C° 0.1 mm 5 mps 770 mmHg 77%

    26 January, Friday

    Time Temperature Precipitation Wind Pressure Humidity
    00:00 -4°C° 0 mm 5 mps 770 mmHg 79%
    01:00 -4°C° 0 mm 5 mps 770 mmHg 81%
    02:00 -3°C° 0 mm 4 mps 770 mmHg 83%
    03:00 -3°C° 0 mm 4 mps 770 mmHg 84%
    04:00 -3°C° 0 mm 4 mps 770 mmHg 86%
    05:00 -3°C° 0 mm 4 mps 769 mmHg 88%
    06:00 -3°C° 0 mm 4 mps 770 mmHg 88%
    07:00 -3°C° 0 mm 4 mps 770 mmHg 88%
    08:00 -3°C° 0 mm 4 mps 770 mmHg 88%
    09:00 -1°C° 0 mm 4 mps 770 mmHg 83%
    10:00 0°C° 0 mm 4 mps 770 mmHg 78%
    11:00 +1°C° 0 mm 4 mps 770 mmHg 73%
    12:00 +2°C° 0 mm 3 mps 770 mmHg 73%
    13:00 +3°C° 0 mm 3 mps 770 mmHg 72%
    14:00 +3°C° 0 mm 3 mps 770 mmHg 71%
    15:00 +3°C° 0 mm 3 mps 770 mmHg 74%
    16:00 +2°C° 0 mm 3 mps 770 mmHg 78%
    17:00 +1°C° 0 mm 3 mps 770 mmHg 81%
    18:00 +1°C° 0 mm 3 mps 770 mmHg 82%
    19:00 +1°C° 0 mm 3 mps 770 mmHg 83%
    20:00 0°C° 0 mm 3 mps 770 mmHg 84%
    21:00 0°C° 0 mm 3 mps 770 mmHg 84%
    22:00 +1°C° 0 mm 2 mps 770 mmHg 84%
    23:00 +1°C° 0 mm 2 mps 770 mmHg 84%

    27 January, Saturday

    Time Temperature Precipitation Wind Pressure Humidity
    00:00 +1°C° 0 mm 2 mps 770 mmHg 84%
    01:00 +1°C° 0 mm 2 mps 770 mmHg 85%
    02:00 +1°C° 0 mm 2 mps 770 mmHg 86%
    03:00 +1°C° 0 mm 2 mps 770 mmHg 86%
    04:00 +1°C° 0 mm 2 mps 770 mmHg 86%
    05:00 +1°C° 0 mm 2 mps 770 mmHg 87%
    06:00 +1°C° 0 mm 2 mps 770 mmHg 87%
    07:00 +1°C° 0 mm 2 mps 770 mmHg 87%
    08:00 +1°C° 0 mm 2 mps 771 mmHg 88%
    09:00 +3°C° 0 mm 2 mps 771 mmHg 84%
    10:00 +4°C° 0 mm 2 mps 771 mmHg 80%
    11:00 +5°C° 0 mm 2 mps 771 mmHg 76%
    12:00 +5°C° 0 mm 2 mps 771 mmHg 75%
    13:00 +6°C° 0 mm 2 mps 771 mmHg 75%
    14:00 +6°C° 0 mm 2 mps 771 mmHg 75%
    15:00 +5°C° 0 mm 2 mps 771 mmHg 78%
    16:00 +3°C° 0 mm 3 mps 771 mmHg 81%
    17:00 +3°C° 0 mm 3 mps 771 mmHg 85%
    18:00 +2°C° 0 mm 3 mps 771 mmHg 85%
    19:00 +3°C° 0 mm 2 mps 772 mmHg 86%
    20:00 +2°C° 0 mm 2 mps 772 mmHg 86%
    21:00 +2°C° 0 mm 2 mps 772 mmHg 87%
    22:00 +2°C° 0 mm 2 mps 772 mmHg 87%
    23:00 +2°C° 0 mm 2 mps 772 mmHg 87%
    Show more